• In Czech Republic
  • List of Countries
  • For 7 days
  • Water Temperature
  • Satellite Maps
  • Weather Map
  • Weather Widgets
  • user-avatar
    Login

    Hourly Weather Ozhibokovo

    Today, 22 September, Saturday

    Time Temperature Precipitation Wind Pressure Humidity
    00:00 +17°C° 0 mm 2 mps 747 mmHg 95%
    01:00 +17°C° 0 mm 3 mps 747 mmHg 95%
    02:00 +17°C° 0 mm 3 mps 747 mmHg 95%
    03:00 +16°C° 0 mm 3 mps 747 mmHg 95%
    04:00 +16°C° 0 mm 3 mps 746 mmHg 94%
    05:00 +16°C° 0 mm 3 mps 746 mmHg 93%
    06:00 +17°C° 0 mm 4 mps 746 mmHg 87%
    07:00 +18°C° 0 mm 4 mps 745 mmHg 81%
    08:00 +19°C° 0 mm 5 mps 745 mmHg 76%
    09:00 +21°C° 0 mm 5 mps 745 mmHg 69%
    10:00 +22°C° 0 mm 6 mps 744 mmHg 62%
    11:00 +24°C° 0 mm 6 mps 744 mmHg 56%
    12:00 +24°C° 0 mm 6 mps 744 mmHg 54%
    13:00 +24°C° 0 mm 6 mps 743 mmHg 52%
    14:00 +26°C° 0 mm 6 mps 743 mmHg 51%
    15:00 +25°C° 0 mm 5 mps 743 mmHg 56%
    16:00 +22°C° 0 mm 4 mps 742 mmHg 61%
    17:00 +21°C° 0 mm 4 mps 742 mmHg 65%
    18:00 +19°C° 0.5 mm 4 mps 742 mmHg 73%
    19:00 +18°C° 0.5 mm 4 mps 742 mmHg 80%
    20:00 +16°C° 0.5 mm 3 mps 742 mmHg 87%
    21:00 +14°C° 0.1 mm 3 mps 742 mmHg 87%
    22:00 +12°C° 0.1 mm 3 mps 742 mmHg 88%
    23:00 +11°C° 0.1 mm 3 mps 742 mmHg 89%

    Tomorrow, 23 September, Sunday

    Time Temperature Precipitation Wind Pressure Humidity
    00:00 +11°C° 0.2 mm 3 mps 742 mmHg 89%
    01:00 +11°C° 0.2 mm 3 mps 742 mmHg 89%
    02:00 +10°C° 0.2 mm 3 mps 742 mmHg 89%
    03:00 +10°C° 0.9 mm 3 mps 742 mmHg 91%
    04:00 +9°C° 0.9 mm 3 mps 742 mmHg 92%
    05:00 +9°C° 0.9 mm 3 mps 742 mmHg 93%
    06:00 +9°C° 1.1 mm 3 mps 742 mmHg 93%
    07:00 +9°C° 1.1 mm 3 mps 742 mmHg 93%
    08:00 +10°C° 1.1 mm 3 mps 742 mmHg 93%
    09:00 +11°C° 0.2 mm 3 mps 742 mmHg 88%
    10:00 +12°C° 0.2 mm 3 mps 742 mmHg 84%
    11:00 +12°C° 0.2 mm 4 mps 742 mmHg 79%
    12:00 +13°C° 0.1 mm 4 mps 741 mmHg 73%
    13:00 +14°C° 0.1 mm 4 mps 741 mmHg 68%
    14:00 +14°C° 0.1 mm 4 mps 741 mmHg 63%
    15:00 +14°C° 0.1 mm 3 mps 741 mmHg 67%
    16:00 +13°C° 0.1 mm 3 mps 741 mmHg 71%
    17:00 +13°C° 0.1 mm 2 mps 741 mmHg 76%
    18:00 +12°C° 0.1 mm 2 mps 741 mmHg 79%
    19:00 +10°C° 0.1 mm 3 mps 741 mmHg 82%
    20:00 +9°C° 0.1 mm 3 mps 741 mmHg 85%
    21:00 +9°C° 0 mm 3 mps 741 mmHg 86%
    22:00 +8°C° 0 mm 3 mps 741 mmHg 87%
    23:00 +8°C° 0 mm 3 mps 741 mmHg 88%

    Day after tomorrow, 24 September, Monday

    Time Temperature Precipitation Wind Pressure Humidity
    00:00 +8°C° 0 mm 3 mps 741 mmHg 89%
    01:00 +7°C° 0 mm 3 mps 741 mmHg 91%
    02:00 +7°C° 0 mm 3 mps 742 mmHg 92%
    03:00 +7°C° 0 mm 3 mps 741 mmHg 93%
    04:00 +5°C° 0 mm 3 mps 741 mmHg 94%
    05:00 +5°C° 0 mm 3 mps 741 mmHg 94%
    06:00 +7°C° 0 mm 3 mps 741 mmHg 90%
    07:00 +8°C° 0 mm 3 mps 741 mmHg 86%
    08:00 +9°C° 0 mm 3 mps 741 mmHg 82%
    09:00 +10°C° 0 mm 3 mps 740 mmHg 77%
    10:00 +11°C° 0 mm 3 mps 740 mmHg 71%
    11:00 +13°C° 0 mm 3 mps 740 mmHg 66%
    12:00 +12°C° 0.2 mm 3 mps 739 mmHg 68%
    13:00 +12°C° 0.2 mm 4 mps 738 mmHg 71%
    14:00 +12°C° 0.2 mm 4 mps 737 mmHg 73%
    15:00 +11°C° 1.8 mm 4 mps 736 mmHg 79%
    16:00 +9°C° 1.8 mm 5 mps 736 mmHg 86%
    17:00 +8°C° 1.8 mm 5 mps 735 mmHg 92%
    18:00 +8°C° 2.2 mm 6 mps 733 mmHg 92%
    19:00 +7°C° 2.2 mm 6 mps 731 mmHg 92%
    20:00 +6°C° 2.2 mm 7 mps 730 mmHg 92%
    21:00 +6°C° 3.4 mm 7 mps 729 mmHg 93%
    22:00 +6°C° 3.4 mm 7 mps 727 mmHg 93%
    23:00 +6°C° 3.4 mm 7 mps 726 mmHg 93%

    25 September, Tuesday

    Time Temperature Precipitation Wind Pressure Humidity
    00:00 +7°C° 2.2 mm 6 mps 725 mmHg 94%
    01:00 +7°C° 2.2 mm 6 mps 725 mmHg 94%
    02:00 +7°C° 2.2 mm 5 mps 724 mmHg 94%
    03:00 +7°C° 1.2 mm 6 mps 724 mmHg 93%
    04:00 +5°C° 1.2 mm 6 mps 725 mmHg 93%
    05:00 +5°C° 1.2 mm 7 mps 725 mmHg 92%
    06:00 +5°C° 1 mm 7 mps 726 mmHg 91%
    07:00 +5°C° 1 mm 8 mps 727 mmHg 90%
    08:00 +5°C° 1 mm 8 mps 727 mmHg 89%
    09:00 +5°C° 0.7 mm 9 mps 729 mmHg 88%
    10:00 +5°C° 0.7 mm 9 mps 730 mmHg 86%
    11:00 +5°C° 0.7 mm 9 mps 731 mmHg 84%
    12:00 +5°C° 0.2 mm 9 mps 732 mmHg 82%
    13:00 +5°C° 0.2 mm 9 mps 733 mmHg 80%
    14:00 +5°C° 0.2 mm 9 mps 734 mmHg 79%
    15:00 +5°C° 0.1 mm 8 mps 735 mmHg 77%
    16:00 +5°C° 0.1 mm 7 mps 736 mmHg 75%
    17:00 +5°C° 0.1 mm 7 mps 737 mmHg 73%
    18:00 +4°C° 0 mm 6 mps 737 mmHg 72%
    19:00 +3°C° 0 mm 6 mps 738 mmHg 70%
    20:00 +3°C° 0 mm 6 mps 739 mmHg 69%
    21:00 +2°C° 0 mm 5 mps 739 mmHg 70%
    22:00 +2°C° 0 mm 5 mps 739 mmHg 71%
    23:00 +1°C° 0 mm 5 mps 740 mmHg 71%

    26 September, Wednesday

    Time Temperature Precipitation Wind Pressure Humidity
    00:00 +1°C° 0 mm 5 mps 740 mmHg 73%
    01:00 +1°C° 0 mm 5 mps 741 mmHg 74%
    02:00 +1°C° 0 mm 5 mps 741 mmHg 75%
    03:00 0°C° 0 mm 5 mps 742 mmHg 76%
    04:00 0°C° 0 mm 4 mps 742 mmHg 77%
    05:00 0°C° 0 mm 4 mps 742 mmHg 77%
    06:00 +1°C° 0 mm 5 mps 743 mmHg 75%
    07:00 +1°C° 0 mm 5 mps 743 mmHg 73%
    08:00 +2°C° 0 mm 5 mps 744 mmHg 71%
    09:00 +3°C° 0 mm 5 mps 744 mmHg 67%
    10:00 +6°C° 0 mm 5 mps 745 mmHg 64%
    11:00 +7°C° 0 mm 5 mps 745 mmHg 60%
    12:00 +7°C° 0 mm 5 mps 746 mmHg 58%
    13:00 +7°C° 0 mm 5 mps 746 mmHg 56%
    14:00 +7°C° 0 mm 5 mps 747 mmHg 54%
    15:00 +7°C° 0 mm 4 mps 747 mmHg 58%
    16:00 +7°C° 0 mm 3 mps 748 mmHg 61%
    17:00 +5°C° 0 mm 3 mps 748 mmHg 65%
    18:00 +4°C° 0 mm 3 mps 749 mmHg 68%
    19:00 +4°C° 0 mm 2 mps 749 mmHg 70%
    20:00 +3°C° 0 mm 2 mps 750 mmHg 73%
    21:00 +2°C° 0 mm 2 mps 750 mmHg 74%
    22:00 +2°C° 0 mm 2 mps 750 mmHg 76%
    23:00 +1°C° 0 mm 2 mps 750 mmHg 78%

    27 September, Thursday

    Time Temperature Precipitation Wind Pressure Humidity
    00:00 +2°C° 0 mm 2 mps 750 mmHg 79%
    01:00 +1°C° 0 mm 3 mps 750 mmHg 81%
    02:00 +1°C° 0 mm 3 mps 750 mmHg 82%
    03:00 +1°C° 0 mm 3 mps 749 mmHg 81%
    04:00 +1°C° 0 mm 4 mps 749 mmHg 80%
    05:00 +1°C° 0 mm 4 mps 748 mmHg 80%
    06:00 +2°C° 0.1 mm 5 mps 748 mmHg 78%
    07:00 +3°C° 0.1 mm 6 mps 747 mmHg 77%
    08:00 +4°C° 0.1 mm 6 mps 746 mmHg 76%
    09:00 +4°C° 0.8 mm 7 mps 745 mmHg 79%
    10:00 +4°C° 0.8 mm 7 mps 745 mmHg 82%
    11:00 +5°C° 0.8 mm 8 mps 744 mmHg 85%
    12:00 +5°C° 1.1 mm 8 mps 743 mmHg 86%
    13:00 +5°C° 1.1 mm 8 mps 742 mmHg 87%
    14:00 +5°C° 1.1 mm 9 mps 741 mmHg 89%
    15:00 +6°C° 0.8 mm 8 mps 741 mmHg 89%
    16:00 +6°C° 0.8 mm 8 mps 740 mmHg 89%
    17:00 +7°C° 0.8 mm 8 mps 740 mmHg 90%
    18:00 +7°C° 0.2 mm 8 mps 740 mmHg 90%
    19:00 +7°C° 0.2 mm 8 mps 739 mmHg 90%
    20:00 +9°C° 0.2 mm 8 mps 739 mmHg 90%
    21:00 +9°C° 0.1 mm 8 mps 739 mmHg 90%
    22:00 +9°C° 0.1 mm 7 mps 739 mmHg 90%
    23:00 +9°C° 0.1 mm 7 mps 738 mmHg 90%
    Show more